Santee, CA

3:31 AM PDT on May 27, 2018 (GMT -0700)
Gillespie

Weather History for KSEE - December, 2012

Change the Weather History Date:

Tuesday, December 25, 2012

  Actual Average Record
Temperature  
Mean Temperature 46 °F -  
Max Temperature 50 °F 70 °F 87 °F (1998)
Min Temperature 41 °F 37 °F 25 °F (1987)
Degree Days  
Heating Degree Days 20    
Moisture  
Dew Point 45 °F    
Average Humidity 97    
Maximum Humidity 100    
Minimum Humidity 76    
Precipitation  
Precipitation 0.00 in - - ()
Sea Level Pressure  
Sea Level Pressure 30.08 in    
Wind  
Wind Speed 1 mph (WSW)    
Max Wind Speed 6 mph    
Max Gust Speed -    
Visibility 8 miles    
Events Fog    
Averages and records for this station are not official NWS values.
T = Trace of Precipitation, MM = Missing Value Source: NWS Daily Summary

Daily Weather History Graph

Daily Weather History Graph

Search for Another Location

Airport or City:

Astronomy

Dec. 25, 2012 Rise Set
Actual Time 6:48 AM PST 4:48 PM PST
Civil Twilight 6:21 AM PST 5:15 PM PST
Nautical Twilight 5:50 AM PST 5:46 PM PST
Astronomical Twilight 5:20 AM PST 6:16 PM PST
Moon 2:57 PM PST (12/25) 4:27 AM PST (12/25)
Length of Visible Light 10h 54m
Length of Day
9h 59m
Waxing Gibbous, 94% of the Moon is Illuminated
Dec 25
Waxing Gibbous
Dec 28
Full
Jan 4
Last Quarter
Jan 11
New
Jan 18
First Quarter

Hourly Weather History & Observations

Time (PST) Temp. Windchill Dew Point Humidity Pressure Visibility Wind Dir Wind Speed Gust Speed Precip Events Conditions
12:15 AM 50.0 °F - 50.0 °F 100% 30.10 in 10.0 mi Calm Calm - N/A   Overcast
12:35 AM 50.0 °F - 48.2 °F 94% 30.10 in 10.0 mi SSE 3.5 mph - N/A   Overcast
12:55 AM 48.2 °F - 48.2 °F 100% 30.10 in 10.0 mi Calm Calm - N/A   Mostly Cloudy
1:15 AM 48.2 °F - 48.2 °F 100% 30.11 in 10.0 mi Calm Calm - N/A   Partly Cloudy
1:35 AM 46.4 °F - 46.4 °F 100% 30.11 in 8.0 mi Calm Calm - N/A   Clear
1:55 AM 46.4 °F - 46.4 °F 100% 30.11 in 9.0 mi Calm Calm - N/A   Clear
2:15 AM 46.4 °F 45.2 °F 46.4 °F 100% 30.11 in 10.0 mi SSE 3.5 mph - N/A   Clear
2:35 AM 46.4 °F - 46.4 °F 100% 30.12 in 10.0 mi Calm Calm - N/A   Clear
2:55 AM 44.6 °F - 44.6 °F 100% 30.11 in 10.0 mi Calm Calm - N/A   Clear
3:15 AM 44.6 °F - 44.6 °F 100% 30.11 in 10.0 mi Calm Calm - N/A   Clear
3:35 AM 44.6 °F 43.1 °F 44.6 °F 100% 30.11 in 7.0 mi West 3.5 mph - N/A   Clear
3:55 AM 44.6 °F - 44.6 °F 100% 30.11 in 6.0 mi Calm Calm - N/A   Clear
4:15 AM 44.6 °F - 44.6 °F 100% 30.12 in 5.0 mi Calm Calm - N/A   Clear
4:35 AM 42.8 °F 41.1 °F 42.8 °F 100% 30.12 in 0.2 mi West 3.5 mph - N/A Fog Fog
4:55 AM 42.8 °F 41.1 °F 42.8 °F 100% 30.11 in 2.5 mi West 3.5 mph - N/A   Clear
5:15 AM 42.8 °F - 42.8 °F 100% 30.10 in 1.2 mi Calm Calm - N/A   Clear
6:47 AM 41.0 °F - 41.0 °F 100% 30.09 in 10.0 mi Calm Calm - N/A Fog Patches of Fog
7:20 AM 41.0 °F - 41.0 °F 100% 30.10 in 1.0 mi Calm Calm - N/A   Mist
7:55 AM 42.8 °F - 42.8 °F 100% 30.10 in 10.0 mi Calm Calm - N/A Fog Patches of Fog
8:55 AM 46.4 °F - 46.4 °F 100% 30.12 in 25.0 mi Calm Calm - N/A   Scattered Clouds
8:15 PM 50.0 °F - 48.2 °F 94% 30.03 in 10.0 mi SE 4.6 mph - N/A   Clear
8:35 PM 50.0 °F - 42.8 °F 76% 30.03 in 10.0 mi Calm Calm - N/A   Clear
8:55 PM 50.0 °F - 42.8 °F 76% 30.03 in 10.0 mi Calm Calm - N/A   Clear
9:15 PM 48.2 °F - 42.8 °F 82% 30.04 in 10.0 mi Calm Calm - N/A   Clear
9:35 PM 48.2 °F - 46.4 °F 93% 30.03 in 9.0 mi Calm Calm - N/A   Clear
9:55 PM 46.4 °F 45.2 °F 46.4 °F 100% 30.04 in 7.0 mi WNW 3.5 mph - N/A   Clear
10:15 PM 46.4 °F 43.5 °F 46.4 °F 100% 30.05 in 8.0 mi WNW 5.8 mph - N/A   Clear
10:35 PM 46.4 °F - 46.4 °F 100% 30.05 in 10.0 mi Calm Calm - N/A   Clear
10:55 PM 44.6 °F - 44.6 °F 100% 30.05 in 10.0 mi Calm Calm - N/A   Clear
11:15 PM 44.6 °F - 44.6 °F 100% 30.05 in 10.0 mi Calm Calm - N/A   Clear
11:35 PM 44.6 °F - 44.6 °F 100% 30.05 in 9.0 mi Calm Calm - N/A   Clear
11:55 PM 42.8 °F - 42.8 °F 100% 30.05 in 5.0 mi Calm Calm - N/A   Clear